Other Surface Observations
Issued by NWS Tucson, AZ

Home | Current Version | Previous Version | Text Only | Print | Product List | Glossary On
Versions: 1 2 3 4 5 6 7 8 9 10 11 12 13 14 15 16 17 18 19 20 21 22 23 24 25 26 27 28 29 30 31 32 33 34 35 36 37 38 39 40 41 42 43 44 45 46 47 48 49 50
226
SXUS55 KTWC 260615
OSOTWC

WEATHER ROUNDUP FOR SOUTHEAST ARIZONA
NATIONAL WEATHER SERVICE TUCSON AZ
1115 PM MST WED APR 25 2018

AZZ504>506-514-260715-
LOCATION       SKY/WX    TMP DP  RH WIND       PRES   REMARKS
TUCSON         CLEAR     77  23  13 W8        29.99R
DAVIS-MONTHAN  CLEAR     71  22  16 SW7       29.97R
CHILDRENS PARK N/A      N/A N/A  15 W2                PIMA CO DEQ
ALVERNON/22ND  N/A       80 N/A N/A W3                PIMA CO DEQ
CHERRY/GLENN   N/A      N/A N/A N/A N/A               PIMA CO DEQ
TANGERINE      N/A       77 N/A N/A NE6               PIMA CO DEQ
CONTL RANCH    N/A       77  22  13 S1                PIMA CO DEQ
GRANT/1ST      N/A       80  23  12 W3                PIMA CO DEQ
CRAYCROFT/22ND N/A       79  24  13 W7                PIMA CO DEQ
GOLFLINKS/KOLB N/A      N/A N/A N/A N/A               PIMA CO DEQ
AJO/12TH       N/A       78  28  16 SW3               PIMA CO DEQ
FAIRGROUNDS    N/A       75 N/A N/A SW7               PIMA CO DEQ
SAGUARO        N/A       73  23  15 NE2               *SABINO CYN
SAN CARLOS     N/A       74  18  12 CALM              *SAN CARLOS
GREEN VALLEY   N/A       75  15  10 SW6               PIMA CO DEQ
HORSE CAMP CYN N/A       75  21  13 W3G12             *ARAVAIPA CYN
RINCON MTNS    N/A       55  16  21 W3G10             *NR MANNING CAMP
$$

AZZ509>511-260715-
LOCATION       SKY/WX    TMP DP  RH WIND       PRES   REMARKS
SAFFORD        CLEAR     73  16  11 NW10      29.95S
STRAY HORSE    N/A       58  15  18 W7G15             *
TRAIL CABIN    N/A       62  15  16 W3                *N OF GRANVILLE
BLACK HILLS    NOT AVBL
DRY LAKE       N/A       56  13  18 N3G10             *NATANES MTNS
NOON CREEK     N/A       67  23  19 SW7G11            *PINALENO MTNS
COLUMBINE      N/A       44  18  35 S2                *PINALENO MTNS
GUTHRIE        N/A       67  15  13 NW14G19           *SW OF GUTHRIE
$$

AZZ502-503-513-260715-
LOCATION       SKY/WX    TMP DP  RH WIND       PRES   REMARKS
NOGALES        PTCLDY    64  30  27 E5        30.07S
SELLS          N/A       72  26  18 E4                *
SASABE         N/A       66  27  23 S5G10             *ALTAR VLY
HOPKINS        N/A       58  18  21 NW12              *SANTA RITA MTNS
CARR CYN       N/A       69  29  22 S4G14             *W OF HEREFORD
$$

AZZ507-508-512-260715-
LOCATION       SKY/WX    TMP DP  RH WIND       PRES   REMARKS
SIERRA VISTA   PTCLDY    71  28  20 W13       30.11S
DOUGLAS        CLEAR     66  26  22 NE3       30.06S
EMPIRE MTNS    NOT AVBL
MULESHOE RANCH N/A       72  20  14 NW4G10            *PRESERVE
HEADQUARTERS   N/A       60  22  23 E2                *CHIRICAHUA MTNS
$$

.............................NOTES.............................
THIS IS AN AUTOMATED COLLECTIVE WITH MINIMAL QUALITY CONTROL.
PIMA CO DEQ SITES HAVE NONSTANDARD WIND SENSOR HEIGHTS.
PIMA CO DEQ SITES DO NOT REPORT WIND GUSTS.
* INDICATES WIND SENSORS LOCATED AT 20 FEET INSTEAD OF 33 FEET.
..............................KEY..............................
SKY/WX - SKY CONDITION/WEATHER
TMP    - TEMPERATURE IN FAHRENHEIT
DP     - DEWPOINT IN FAHRENHEIT
RH     - RELATIVE HUMIDITY IN PERCENT
WIND   - DIRECTION AND SPEED IN MILES PER HOUR (MPH)
VRB    - VARIABLE WIND DIRECTION
PRES   - MEAN SEA LEVEL PRESSURE IN INCHES OF MERCURY
         F - FALLING PRESSURE   R - RISING PRESSURE
         S - STEADY PRESSURE
VSB    - VISIBILITY IN MILES
HX     - HEAT INDEX IN FAHRENHEIT
WCI    - WIND CHILL INDEX IN FAHRENHEIT
N/A    - NOT AVAILABLE
AFB    - AIR FORCE BASE
         DAVIS-MONTHAN IS DAVIS-MONTHAN AIR FORCE BASE
CYN    - CANYON
MTNS   - MOUNTAINS
NCA    - NATIONAL CONSERVATION AREA
NR     - NEAR
VLY    - VALLEY
CONTL  - CONTINENTAL
PIMA CO DEQ - PIMA COUNTY DEPT OF ENVIRONMENTAL QUALITY



USA.gov is the U.S. government's official web portal to all federal, state and local government web resources and services.